Regional Weather Roundup
Issued by NWS

Home | Current Version | Previous Version | Text Only | Print | Product List | Glossary On
Versions: 1 2 3 4 5 6 7 8 9 10 11 12 13 14 15 16 17 18 19 20 21 22 23 24 25 26 27 28 29 30 31 32 33 34 35 36 37 38 39 40 41 42 43 44 45 46 47 48 49 50
000
ASUS43 KLMK 181502
RWRKY
KENTUCKY REGIONAL WEATHER ROUNDUP
NATIONAL WEATHER SERVICE LOUISVILLE KY
1000 AM EST SAT NOV 18 2017

NOTE "FAIR" INDICATES FEW OR NO CLOUDS BELOW 12,000 FEET
WITH NO SIGNIFICANT WEATHER AND/OR OBSTRUCTIONS TO VISIBILITY.

KYZ001>023-026-027-061>063-070>075-181600-
WESTERN AND SOUTH CENTRAL KENTUCKY

CITY           SKY/WX    TMP DP  RH WIND       PRES   REMARKS
PADUCAH        LGT RAIN  65  60  84 S13       29.54F
HENDERSON      CLOUDY    65  60  84 S20G30    29.52
OWENSBORO      CLOUDY    64  58  80 S24G32    29.53F
HOPKINSVILLE   DRIZZLE   63  61  94 S9        29.64F
BOWLING GREEN  CLOUDY    63  57  81 S20G28    29.67F
GLASGOW        NOT AVBL
$$

KYZ024-025-028>034-038-045-046-053-181600-
NORTH CENTRAL KENTUCKY

CITY           SKY/WX    TMP DP  RH WIND       PRES   REMARKS
LOUISVILLE/SDF CLOUDY    65  56  72 S23G37    29.57F
LOUISVILLE/LOU CLOUDY    64  57  78 S22G32    29.57F
FORT KNOX      CLOUDY    62  55  76 S20G36    29.59S
$$

KYZ035>037-039>044-047>052-055>060-089>105-181600-
NORTHEAST KENTUCKY

CITY           SKY/WX    TMP DP  RH WIND       PRES   REMARKS
LEXINGTON      CLOUDY    62  52  69 S28G38    29.62F
COVINGTON      CLOUDY    60  53  77 SW16G31   29.50F
FRANKFORT      CLOUDY    62  50  64 S24G45    29.59F
$$

KYZ054-064>069-076>088-106>120-181600-
SOUTHEAST KENTUCKY

CITY           SKY/WX    TMP DP  RH WIND       PRES   REMARKS
JACKSON        CLOUDY    59  43  55 S8G21     29.71F
LONDON         CLOUDY    60  43  53 S12       29.73F
SOMERSET       CLOUDY    59  46  63 S15G26    29.73F
MIDDLESBORO    CLOUDY    57  42  57 S14G28    29.82F
MONTICELLO     CLOUDY    62  51  67 S14G33    29.73F
$$




USA.gov is the U.S. government's official web portal to all federal, state and local government web resources and services.